Time,TemperatureF,DewpointF,PressureIn,WindDirection,WindDirectionDegrees,WindSpeedMPH,WindSpeedGustMPH,Humidity,HourlyPrecipIn,Conditions,Clouds,dailyrainin,SoftwareType,DateUTC
2013-08-07 00:01:00,69.6,67.8,29.42,WSW,239,0.0,0.0,94,0.00,RA,,0.00,WeatherDisplay:10.37,2013-08-07 04:01:00,
2013-08-07 00:06:00,69.4,67.6,29.42,WSW,239,0.0,0.0,94,0.00,RA,,0.00,WeatherDisplay:10.37,2013-08-07 04:06:00,
2013-08-07 00:11:00,69.4,67.6,29.42,WSW,239,0.0,0.0,94,0.00,CLR,,0.00,WeatherDisplay:10.37,2013-08-07 04:11:00,
2013-08-07 00:16:00,69.4,67.6,29.42,WSW,239,0.0,0.0,94,0.00,CLR,,0.00,WeatherDisplay:10.37,2013-08-07 04:16:00,
2013-08-07 00:21:00,69.4,67.6,29.42,WSW,239,0.0,0.0,94,0.00,CLR,,0.00,WeatherDisplay:10.37,2013-08-07 04:21:00,
2013-08-07 00:26:00,69.4,67.6,29.42,WSW,239,0.0,0.0,94,0.00,CLR,,0.00,WeatherDisplay:10.37,2013-08-07 04:26:00,
2013-08-07 00:31:00,69.4,67.6,29.42,WSW,239,0.0,0.0,94,0.00,CLR,,0.00,WeatherDisplay:10.37,2013-08-07 04:31:00,
2013-08-07 00:36:00,69.3,67.5,29.42,WSW,239,0.0,0.0,94,0.00,CLR,,0.00,WeatherDisplay:10.37,2013-08-07 04:36:00,
2013-08-07 00:41:00,69.1,67.3,29.42,WSW,239,0.0,0.0,94,0.00,CLR,,0.00,WeatherDisplay:10.37,2013-08-07 04:41:00,
2013-08-07 00:46:00,69.1,67.3,29.42,WSW,239,0.0,0.0,94,0.00,CLR,,0.00,WeatherDisplay:10.37,2013-08-07 04:46:00,
2013-08-07 00:51:00,69.1,67.3,29.42,WSW,239,0.0,0.0,94,0.00,CLR,,0.00,WeatherDisplay:10.37,2013-08-07 04:51:00,
2013-08-07 00:56:00,69.1,67.3,29.42,WSW,239,0.0,0.0,94,0.00,CLR,,0.00,WeatherDisplay:10.37,2013-08-07 04:56:00,
2013-08-07 01:01:00,69.3,67.5,29.42,WSW,239,0.0,0.0,94,0.00,CLR,,0.00,WeatherDisplay:10.37,2013-08-07 05:01:00,
2013-08-07 01:06:00,69.1,67.3,29.41,WSW,239,0.0,0.0,94,0.00,CLR,,0.00,WeatherDisplay:10.37,2013-08-07 05:06:00,
2013-08-07 01:11:00,69.1,67.3,29.41,WSW,239,0.0,0.0,94,0.00,CLR,,0.00,WeatherDisplay:10.37,2013-08-07 05:11:00,
2013-08-07 01:16:00,68.9,67.4,29.41,WSW,239,0.0,0.0,95,0.00,CLR,,0.00,WeatherDisplay:10.37,2013-08-07 05:16:00,
2013-08-07 01:21:00,68.9,67.4,29.41,WSW,239,0.0,0.0,95,0.00,CLR,,0.00,WeatherDisplay:10.37,2013-08-07 05:21:00,
2013-08-07 01:26:00,68.8,67.3,29.41,WSW,239,0.0,0.0,95,0.00,CLR,,0.00,WeatherDisplay:10.37,2013-08-07 05:26:00,
2013-08-07 01:31:00,68.8,67.3,29.41,WSW,239,0.0,0.0,95,0.00,CLR,,0.00,WeatherDisplay:10.37,2013-08-07 05:31:00,
2013-08-07 01:36:00,68.6,67.1,29.41,WSW,239,0.0,0.0,95,0.00,CLR,,0.00,WeatherDisplay:10.37,2013-08-07 05:36:00,
2013-08-07 01:41:00,68.8,67.3,29.41,WSW,239,0.0,0.0,95,0.00,CLR,,0.00,WeatherDisplay:10.37,2013-08-07 05:41:00,
2013-08-07 01:46:00,68.8,67.3,29.41,WSW,239,0.0,0.0,95,0.00,CLR,,0.00,WeatherDisplay:10.37,2013-08-07 05:46:00,
2013-08-07 01:51:00,68.6,67.4,29.41,WSW,239,0.0,0.0,96,0.00,CLR,,0.00,WeatherDisplay:10.37,2013-08-07 05:51:00,
2013-08-07 01:56:00,68.8,67.6,29.41,WSW,239,0.0,0.0,96,0.00,CLR,,0.00,WeatherDisplay:10.37,2013-08-07 05:56:00,
2013-08-07 02:01:00,68.8,67.6,29.41,WSW,239,0.0,0.0,96,0.00,CLR,,0.00,WeatherDisplay:10.37,2013-08-07 06:01:00,
2013-08-07 02:06:00,68.8,67.6,29.41,WSW,239,0.0,0.0,96,0.00,CLR,,0.00,WeatherDisplay:10.37,2013-08-07 06:06:00,
2013-08-07 02:11:00,68.9,67.7,29.41,WSW,239,0.0,0.0,96,0.00,CLR,,0.00,WeatherDisplay:10.37,2013-08-07 06:11:00,
2013-08-07 02:16:00,68.9,67.7,29.41,WSW,239,0.0,0.0,96,0.00,CLR,,0.00,WeatherDisplay:10.37,2013-08-07 06:16:00,
2013-08-07 02:21:00,68.9,67.7,29.41,WSW,239,0.0,0.0,96,0.00,CLR,,0.00,WeatherDisplay:10.37,2013-08-07 06:21:00,
2013-08-07 02:26:00,68.9,67.7,29.41,WSW,239,0.0,0.0,96,0.00,CLR,,0.00,WeatherDisplay:10.37,2013-08-07 06:26:00,
2013-08-07 02:31:00,68.9,67.7,29.41,WSW,239,0.0,0.0,96,0.00,CLR,,0.00,WeatherDisplay:10.37,2013-08-07 06:31:00,
2013-08-07 02:36:00,69.1,67.9,29.42,WSW,239,0.0,0.0,96,0.00,CLR,,0.00,WeatherDisplay:10.37,2013-08-07 06:36:00,
2013-08-07 02:41:00,69.1,67.9,29.42,WSW,239,0.0,0.0,96,0.00,CLR,,0.00,WeatherDisplay:10.37,2013-08-07 06:41:00,
2013-08-07 02:46:00,69.1,67.9,29.42,WSW,239,0.0,0.0,96,0.00,CLR,,0.00,WeatherDisplay:10.37,2013-08-07 06:46:00,
2013-08-07 02:51:00,69.1,67.9,29.42,WSW,239,0.0,0.0,96,0.00,CLR,,0.00,WeatherDisplay:10.37,2013-08-07 06:51:00,
2013-08-07 02:56:00,69.1,67.9,29.42,WSW,239,0.0,0.0,96,0.00,CLR,,0.00,WeatherDisplay:10.37,2013-08-07 06:56:00,
2013-08-07 03:01:00,69.1,67.9,29.42,WSW,239,0.0,0.0,96,0.00,CLR,,0.00,WeatherDisplay:10.37,2013-08-07 07:01:00,
2013-08-07 03:06:00,69.1,67.9,29.42,WSW,239,0.0,0.0,96,0.00,CLR,,0.00,WeatherDisplay:10.37,2013-08-07 07:06:00,
2013-08-07 03:11:00,69.1,68.2,29.42,WSW,239,0.0,0.0,97,0.00,CLR,,0.00,WeatherDisplay:10.37,2013-08-07 07:11:00,
2013-08-07 03:16:00,69.1,68.2,29.42,WSW,239,0.0,0.0,97,0.00,CLR,,0.00,WeatherDisplay:10.37,2013-08-07 07:16:00,
2013-08-07 03:21:00,69.1,67.9,29.42,WSW,239,0.0,0.0,96,0.00,CLR,,0.00,WeatherDisplay:10.37,2013-08-07 07:21:00,
2013-08-07 03:26:00,69.1,68.2,29.42,WSW,239,0.0,0.0,97,0.00,CLR,,0.00,WeatherDisplay:10.37,2013-08-07 07:26:00,
2013-08-07 03:31:00,68.9,67.7,29.42,WSW,239,0.0,0.0,96,0.00,CLR,,0.00,WeatherDisplay:10.37,2013-08-07 07:31:00,
2013-08-07 03:36:00,68.9,67.7,29.42,WSW,239,0.0,0.0,96,0.00,CLR,,0.00,WeatherDisplay:10.37,2013-08-07 07:36:00,
2013-08-07 03:41:00,68.9,67.7,29.42,WSW,239,0.0,0.0,96,0.00,CLR,,0.00,WeatherDisplay:10.37,2013-08-07 07:41:00,
2013-08-07 03:46:00,68.9,67.7,29.42,WSW,239,0.0,0.0,96,0.00,CLR,,0.00,WeatherDisplay:10.37,2013-08-07 07:46:00,
2013-08-07 03:51:00,68.9,67.7,29.42,WSW,239,0.0,0.0,96,0.00,CLR,,0.00,WeatherDisplay:10.37,2013-08-07 07:51:00,
2013-08-07 03:56:00,68.9,67.7,29.42,WSW,239,0.0,0.0,96,0.00,CLR,,0.00,WeatherDisplay:10.37,2013-08-07 07:56:00,
2013-08-07 04:01:00,69.1,67.9,29.42,WSW,239,0.0,0.0,96,0.00,CLR,,0.00,WeatherDisplay:10.37,2013-08-07 08:01:00,
2013-08-07 04:06:00,69.1,67.9,29.42,WSW,239,0.0,0.0,96,0.00,CLR,,0.00,WeatherDisplay:10.37,2013-08-07 08:06:00,
2013-08-07 04:11:00,69.1,67.9,29.42,WSW,239,0.0,0.0,96,0.00,CLR,,0.00,WeatherDisplay:10.37,2013-08-07 08:11:00,
2013-08-07 04:16:00,69.1,67.9,29.42,WSW,239,0.0,0.0,96,0.00,CLR,,0.00,WeatherDisplay:10.37,2013-08-07 08:16:00,
2013-08-07 04:21:00,69.3,68.1,29.42,WSW,239,0.0,0.0,96,0.00,CLR,,0.00,WeatherDisplay:10.37,2013-08-07 08:21:00,
2013-08-07 04:26:00,69.3,68.1,29.42,WSW,239,0.0,0.0,96,0.00,CLR,,0.00,WeatherDisplay:10.37,2013-08-07 08:26:00,
2013-08-07 04:31:00,69.1,67.9,29.42,WSW,239,0.0,0.0,96,0.00,CLR,,0.00,WeatherDisplay:10.37,2013-08-07 08:31:00,
2013-08-07 04:36:00,69.1,67.9,29.42,WSW,239,0.0,0.0,96,0.00,CLR,,0.00,WeatherDisplay:10.37,2013-08-07 08:36:00,
2013-08-07 04:41:00,68.9,67.7,29.42,WSW,239,0.0,0.0,96,0.00,CLR,,0.00,WeatherDisplay:10.37,2013-08-07 08:41:00,
2013-08-07 04:46:00,68.9,67.7,29.42,WSW,239,0.0,0.0,96,0.00,CLR,,0.00,WeatherDisplay:10.37,2013-08-07 08:46:00,
2013-08-07 04:51:00,68.8,67.3,29.42,WSW,239,0.0,0.0,95,0.00,CLR,,0.00,WeatherDisplay:10.37,2013-08-07 08:51:00,
2013-08-07 04:56:00,68.8,67.3,29.42,WSW,239,0.0,0.0,95,0.00,CLR,,0.00,WeatherDisplay:10.37,2013-08-07 08:56:00,
2013-08-07 05:01:00,68.8,67.3,29.42,WSW,239,0.0,0.0,95,0.00,CLR,,0.00,WeatherDisplay:10.37,2013-08-07 09:01:00,
2013-08-07 05:06:00,68.8,67.3,29.42,WSW,239,0.0,0.0,95,0.00,CLR,,0.00,WeatherDisplay:10.37,2013-08-07 09:06:00,
2013-08-07 05:11:00,68.8,67.3,29.42,WSW,239,0.0,0.0,95,0.00,CLR,,0.00,WeatherDisplay:10.37,2013-08-07 09:11:00,
2013-08-07 05:16:00,68.8,67.3,29.42,WSW,239,0.0,0.0,95,0.00,CLR,,0.00,WeatherDisplay:10.37,2013-08-07 09:16:00,
2013-08-07 05:21:00,68.8,67.3,29.42,WSW,239,0.0,0.0,95,0.00,CLR,,0.00,WeatherDisplay:10.37,2013-08-07 09:21:00,
2013-08-07 05:26:00,68.8,67.3,29.42,WSW,239,0.0,0.0,95,0.00,CLR,,0.00,WeatherDisplay:10.37,2013-08-07 09:26:00,
2013-08-07 05:31:00,68.8,67.3,29.42,WSW,239,0.0,0.0,95,0.00,CLR,,0.00,WeatherDisplay:10.37,2013-08-07 09:31:00,
2013-08-07 05:36:00,68.8,67.3,29.43,WSW,239,0.0,0.0,95,0.00,CLR,,0.00,WeatherDisplay:10.37,2013-08-07 09:36:00,
2013-08-07 05:41:00,68.8,67.3,29.43,WSW,239,0.0,0.0,95,0.00,CLR,,0.00,WeatherDisplay:10.37,2013-08-07 09:41:00,
2013-08-07 05:46:00,68.8,67.3,29.43,WSW,239,0.0,0.0,95,0.00,CLR,,0.00,WeatherDisplay:10.37,2013-08-07 09:46:00,
2013-08-07 05:52:00,68.8,67.3,29.43,WSW,239,0.0,0.0,95,0.00,CLR,,0.00,WeatherDisplay:10.37,2013-08-07 09:52:00,
2013-08-07 05:57:00,68.8,67.3,29.43,WSW,239,0.0,0.0,95,0.00,CLR,,0.00,WeatherDisplay:10.37,2013-08-07 09:57:00,
2013-08-07 06:02:00,68.8,67.3,29.43,WSW,239,0.0,0.0,95,0.00,CLR,,0.00,WeatherDisplay:10.37,2013-08-07 10:02:00,
2013-08-07 06:07:00,68.8,67.3,29.43,WSW,239,0.0,0.0,95,0.00,CLR,,0.00,WeatherDisplay:10.37,2013-08-07 10:07:00,
2013-08-07 06:12:00,68.8,67.0,29.43,WSW,239,0.0,0.0,94,0.00,CLR,,0.00,WeatherDisplay:10.37,2013-08-07 10:12:00,
2013-08-07 06:17:00,68.8,67.0,29.43,WSW,239,0.0,0.0,94,0.00,CLR,,0.00,WeatherDisplay:10.37,2013-08-07 10:17:00,
2013-08-07 06:22:00,68.8,67.0,29.43,WSW,239,0.0,0.0,94,0.00,CLR,,0.00,WeatherDisplay:10.37,2013-08-07 10:22:00,
2013-08-07 06:27:00,68.8,67.0,29.43,WSW,239,0.0,0.0,94,0.00,CLR,,0.00,WeatherDisplay:10.37,2013-08-07 10:27:00,
2013-08-07 06:32:00,68.8,67.0,29.43,WSW,239,0.0,0.0,94,0.00,CLR,,0.00,WeatherDisplay:10.37,2013-08-07 10:32:00,
2013-08-07 06:37:00,68.8,67.0,29.44,WSW,239,0.0,0.0,94,0.00,CLR,,0.00,WeatherDisplay:10.37,2013-08-07 10:37:00,
2013-08-07 06:42:00,68.8,67.0,29.44,WSW,239,0.0,0.0,94,0.00,CLR,,0.00,WeatherDisplay:10.37,2013-08-07 10:42:00,
2013-08-07 06:47:00,68.8,67.0,29.44,WSW,239,0.0,0.0,94,0.00,CLR,,0.00,WeatherDisplay:10.37,2013-08-07 10:47:00,
2013-08-07 06:52:00,68.8,67.0,29.44,WSW,239,0.0,0.0,94,0.00,CLR,,0.00,WeatherDisplay:10.37,2013-08-07 10:52:00,
2013-08-07 06:57:00,68.8,67.0,29.44,WSW,239,0.0,0.0,94,0.00,CLR,,0.00,WeatherDisplay:10.37,2013-08-07 10:57:00,
2013-08-07 07:02:00,68.8,67.0,29.44,WSW,239,0.0,0.0,94,0.00,CLR,,0.00,WeatherDisplay:10.37,2013-08-07 11:02:00,
2013-08-07 07:07:00,68.9,67.1,29.44,WSW,239,0.0,0.0,94,0.00,CLR,,0.00,WeatherDisplay:10.37,2013-08-07 11:07:00,
2013-08-07 07:12:00,68.9,67.1,29.44,WSW,239,0.0,0.0,94,0.00,CLR,,0.00,WeatherDisplay:10.37,2013-08-07 11:12:00,
2013-08-07 07:17:00,68.9,67.1,29.44,WSW,239,0.0,0.0,94,0.00,CLR,,0.00,WeatherDisplay:10.37,2013-08-07 11:17:00,
2013-08-07 07:22:00,69.1,67.3,29.44,WSW,239,0.0,0.0,94,0.00,CLR,,0.00,WeatherDisplay:10.37,2013-08-07 11:22:00,
2013-08-07 07:27:00,69.1,67.3,29.44,WSW,239,0.0,0.0,94,0.00,CLR,,0.00,WeatherDisplay:10.37,2013-08-07 11:27:00,
2013-08-07 07:32:00,69.3,67.5,29.44,WSW,239,0.0,0.0,94,0.00,CLR,,0.00,WeatherDisplay:10.37,2013-08-07 11:32:00,
2013-08-07 07:37:00,69.4,67.6,29.44,WSW,239,0.0,0.0,94,0.00,CLR,,0.00,WeatherDisplay:10.37,2013-08-07 11:37:00,
2013-08-07 07:42:00,69.4,67.6,29.44,WSW,239,0.0,0.0,94,0.00,CLR,,0.00,WeatherDisplay:10.37,2013-08-07 11:42:00,
2013-08-07 07:47:00,69.6,67.8,29.44,WSW,239,0.0,0.0,94,0.00,CLR,,0.00,WeatherDisplay:10.37,2013-08-07 11:47:00,
2013-08-07 07:52:00,69.6,67.8,29.44,WSW,239,0.0,0.0,94,0.00,CLR,,0.00,WeatherDisplay:10.37,2013-08-07 11:52:00,
2013-08-07 07:57:00,69.8,68.0,29.44,WSW,239,0.0,0.0,94,0.00,CLR,,0.00,WeatherDisplay:10.37,2013-08-07 11:57:00,
2013-08-07 08:02:00,69.9,67.8,29.44,WSW,239,0.0,0.0,93,0.00,CLR,,0.00,WeatherDisplay:10.37,2013-08-07 12:02:00,
2013-08-07 08:07:00,70.1,68.0,29.44,WSW,239,0.0,0.0,93,0.00,CLR,,0.00,WeatherDisplay:10.37,2013-08-07 12:07:00,
2013-08-07 08:12:00,70.3,67.9,29.44,WSW,239,0.0,0.0,92,0.00,CLR,,0.00,WeatherDisplay:10.37,2013-08-07 12:12:00,
2013-08-07 08:17:00,70.4,68.0,29.44,WSW,239,0.0,0.0,92,0.00,CLR,,0.00,WeatherDisplay:10.37,2013-08-07 12:17:00,
2013-08-07 08:22:00,70.9,68.5,29.44,East,83,0.0,0.0,92,0.00,CLR,,0.00,WeatherDisplay:10.37,2013-08-07 12:22:00,
2013-08-07 08:27:00,71.5,68.7,29.44,East,85,0.0,0.0,91,0.00,CLR,,0.00,WeatherDisplay:10.37,2013-08-07 12:27:00,
2013-08-07 08:32:00,72.0,68.6,29.44,East,85,0.0,0.0,89,0.00,CLR,,0.00,WeatherDisplay:10.37,2013-08-07 12:32:00,
2013-08-07 08:37:00,72.3,68.2,29.45,West,264,3.5,0.0,87,0.00,CLR,,0.00,WeatherDisplay:10.37,2013-08-07 12:37:00,
2013-08-07 08:42:00,72.7,68.3,29.45,West,264,0.0,0.0,86,0.00,CLR,,0.00,WeatherDisplay:10.37,2013-08-07 12:42:00,
2013-08-07 08:47:00,73.0,67.9,29.45,West,264,0.0,0.0,84,0.00,CLR,,0.00,WeatherDisplay:10.37,2013-08-07 12:47:00,
2013-08-07 08:52:00,73.3,68.2,29.45,West,264,0.0,0.0,84,0.00,CLR,,0.00,WeatherDisplay:10.37,2013-08-07 12:52:00,
2013-08-07 08:57:00,73.7,68.2,29.45,WSW,251,0.0,0.0,83,0.00,CLR,,0.00,WeatherDisplay:10.37,2013-08-07 12:57:00,
2013-08-07 09:02:00,73.9,67.7,29.45,SW,236,3.5,0.0,81,0.00,CLR,,0.00,WeatherDisplay:10.37,2013-08-07 13:02:00,
2013-08-07 09:07:00,74.4,67.8,29.45,NE,51,0.0,0.0,80,0.00,CLR,,0.00,WeatherDisplay:10.37,2013-08-07 13:07:00,
2013-08-07 09:12:00,74.7,67.8,29.45,SW,220,2.3,0.0,79,0.00,CLR,,0.00,WeatherDisplay:10.37,2013-08-07 13:12:00,
2013-08-07 09:17:00,75.1,67.8,29.45,West,260,2.3,2.3,78,0.00,CLR,,0.00,WeatherDisplay:10.37,2013-08-07 13:17:00,
2013-08-07 09:22:00,75.6,67.5,29.45,SW,227,4.6,4.6,76,0.00,CLR,,0.00,WeatherDisplay:10.37,2013-08-07 13:22:00,
2013-08-07 09:27:00,76.0,67.9,29.45,NW,325,3.5,3.5,76,0.00,CLR,,0.00,WeatherDisplay:10.37,2013-08-07 13:27:00,
2013-08-07 09:32:00,76.1,67.2,29.45,ESE,121,2.3,0.0,74,0.00,CLR,,0.00,WeatherDisplay:10.37,2013-08-07 13:32:00,
2013-08-07 09:37:00,76.5,68.0,29.46,ESE,121,0.0,0.0,75,0.00,CLR,,0.00,WeatherDisplay:10.37,2013-08-07 13:37:00,
2013-08-07 09:42:00,76.7,67.8,29.46,WSW,247,3.5,3.5,74,0.00,CLR,,0.00,WeatherDisplay:10.37,2013-08-07 13:42:00,
2013-08-07 09:47:00,76.5,68.0,29.46,West,278,0.0,0.0,75,0.00,CLR,,0.00,WeatherDisplay:10.37,2013-08-07 13:47:00,
2013-08-07 09:52:00,76.5,67.6,29.46,West,274,0.0,0.0,74,0.00,CLR,,0.00,WeatherDisplay:10.37,2013-08-07 13:52:00,
2013-08-07 09:57:00,76.5,68.0,29.46,West,261,0.0,0.0,75,0.00,CLR,,0.00,WeatherDisplay:10.37,2013-08-07 13:57:00,
2013-08-07 10:02:00,76.7,67.4,29.46,WSW,248,4.6,4.6,73,0.00,CLR,,0.00,WeatherDisplay:10.37,2013-08-07 14:02:00,
2013-08-07 10:07:00,77.0,68.5,29.46,SW,234,1.1,1.1,75,0.00,CLR,,0.00,WeatherDisplay:10.37,2013-08-07 14:07:00,
2013-08-07 10:12:00,77.4,67.7,29.46,SW,236,0.0,0.0,72,0.00,CLR,,0.00,WeatherDisplay:10.37,2013-08-07 14:12:00,
2013-08-07 10:17:00,77.9,68.1,29.46,West,267,2.3,0.0,72,0.00,CLR,,0.00,WeatherDisplay:10.37,2013-08-07 14:17:00,
2013-08-07 10:22:00,78.5,68.7,29.46,South,169,3.5,3.5,72,0.00,CLR,,0.00,WeatherDisplay:10.37,2013-08-07 14:22:00,
2013-08-07 10:27:00,79.2,68.6,29.46,ESE,121,0.0,0.0,70,0.00,CLR,,0.00,WeatherDisplay:10.37,2013-08-07 14:27:00,
2013-08-07 10:32:00,79.6,69.4,29.46,SW,232,1.1,0.0,71,0.00,CLR,,0.00,WeatherDisplay:10.37,2013-08-07 14:32:00,
2013-08-07 10:37:00,79.9,69.2,29.45,NNW,330,3.5,3.5,70,0.00,CLR,,0.00,WeatherDisplay:10.37,2013-08-07 14:37:00,
2013-08-07 10:42:00,80.3,69.2,29.45,WSW,251,0.0,0.0,69,0.00,CLR,,0.00,WeatherDisplay:10.37,2013-08-07 14:42:00,
2013-08-07 10:47:00,80.5,69.0,29.45,East,83,5.0,5.0,68,0.00,CLR,,0.00,WeatherDisplay:10.37,2013-08-07 14:47:00,
2013-08-07 10:52:00,80.3,69.2,29.45,WNW,299,1.1,0.0,69,0.00,CLR,,0.00,WeatherDisplay:10.37,2013-08-07 14:52:00,
2013-08-07 10:57:00,80.5,68.5,29.45,SSW,200,0.0,0.0,67,0.00,CLR,,0.00,WeatherDisplay:10.37,2013-08-07 14:57:00,
2013-08-07 11:02:00,80.7,69.2,29.45,SSE,147,6.9,6.9,68,0.00,CLR,,0.00,WeatherDisplay:10.37,2013-08-07 15:02:00,
2013-08-07 11:07:00,80.9,69.3,29.45,South,172,0.0,0.0,68,0.00,CLR,,0.00,WeatherDisplay:10.37,2013-08-07 15:07:00,
2013-08-07 11:12:00,80.5,68.5,29.45,SW,220,8.1,8.1,67,0.00,CLR,,0.00,WeatherDisplay:10.37,2013-08-07 15:12:00,
2013-08-07 11:17:00,79.6,68.5,29.45,SW,230,5.8,5.8,69,0.00,CLR,,0.00,WeatherDisplay:10.37,2013-08-07 15:17:00,
2013-08-07 11:22:00,79.8,69.1,29.45,WSW,246,5.8,5.8,70,0.00,CLR,,0.00,WeatherDisplay:10.37,2013-08-07 15:22:00,
2013-08-07 11:27:00,80.1,69.0,29.45,WSW,250,0.0,0.0,69,0.00,CLR,,0.00,WeatherDisplay:10.37,2013-08-07 15:27:00,
2013-08-07 11:32:00,80.9,69.3,29.45,South,172,1.1,0.0,68,0.00,CLR,,0.00,WeatherDisplay:10.37,2013-08-07 15:32:00,
2013-08-07 11:37:00,80.7,68.7,29.45,WSW,244,5.0,5.0,67,0.00,CLR,,0.00,WeatherDisplay:10.37,2013-08-07 15:37:00,
2013-08-07 11:42:00,80.9,68.9,29.45,SW,236,3.5,3.5,67,0.00,CLR,,0.00,WeatherDisplay:10.37,2013-08-07 15:42:00,
2013-08-07 11:47:00,81.4,69.4,29.45,North,8,1.1,1.1,67,0.00,CLR,,0.00,WeatherDisplay:10.37,2013-08-07 15:47:00,
2013-08-07 11:52:00,81.8,68.9,29.46,SW,217,2.0,2.0,65,0.00,CLR,,0.00,WeatherDisplay:10.37,2013-08-07 15:52:00,
2013-08-07 11:57:00,82.2,67.9,29.46,SE,126,2.3,2.3,62,0.00,CLR,,0.00,WeatherDisplay:10.37,2013-08-07 15:57:00,
2013-08-07 12:02:00,81.8,67.5,29.46,WSW,241,8.1,8.1,62,0.00,CLR,,0.00,WeatherDisplay:10.37,2013-08-07 16:02:00,
2013-08-07 12:07:00,81.8,68.0,29.45,WSW,254,0.0,0.0,63,0.00,CLR,,0.00,WeatherDisplay:10.37,2013-08-07 16:07:00,
2013-08-07 12:12:00,82.4,67.1,29.45,WNW,285,0.0,0.3,60,0.00,CLR,,0.00,WeatherDisplay:10.37,2013-08-07 16:12:00,
2013-08-07 12:17:00,82.6,67.3,29.45,SW,223,1.1,0.0,60,0.00,CLR,,0.00,WeatherDisplay:10.37,2013-08-07 16:17:00,
2013-08-07 12:22:00,83.4,68.5,29.45,SW,217,0.0,0.0,61,0.00,CLR,,0.00,WeatherDisplay:10.37,2013-08-07 16:22:00,
2013-08-07 12:27:00,83.8,69.4,29.45,West,267,5.0,5.0,62,0.00,CLR,,0.00,WeatherDisplay:10.37,2013-08-07 16:27:00,
2013-08-07 12:32:00,83.4,68.1,29.45,South,172,3.5,3.5,60,0.00,CLR,,0.00,WeatherDisplay:10.37,2013-08-07 16:32:00,
2013-08-07 12:37:00,83.4,66.6,29.45,West,275,1.1,1.1,57,0.00,CLR,,0.00,WeatherDisplay:10.37,2013-08-07 16:37:00,
2013-08-07 12:42:00,84.0,67.1,29.45,WSW,246,0.0,0.8,57,0.00,CLR,,0.00,WeatherDisplay:10.37,2013-08-07 16:42:00,
2013-08-07 12:47:00,84.1,66.7,29.45,WSW,237,1.1,1.1,56,0.00,CLR,,0.00,WeatherDisplay:10.37,2013-08-07 16:47:00,
2013-08-07 12:52:00,84.1,65.7,29.45,South,191,3.5,0.0,54,0.00,CLR,,0.00,WeatherDisplay:10.37,2013-08-07 16:52:00,
2013-08-07 12:57:00,84.0,66.6,29.45,South,191,3.5,3.5,56,0.00,CLR,,0.00,WeatherDisplay:10.37,2013-08-07 16:57:00,
2013-08-07 13:02:00,84.3,65.8,29.45,WSW,254,1.1,1.2,54,0.00,CLR,,0.00,WeatherDisplay:10.37,2013-08-07 17:02:00,
2013-08-07 13:07:00,84.3,66.9,29.44,WSW,254,1.1,1.1,56,0.00,CLR,,0.00,WeatherDisplay:10.37,2013-08-07 17:07:00,
2013-08-07 13:12:00,84.5,68.6,29.44,SSE,162,1.1,0.0,59,0.00,CLR,,0.00,WeatherDisplay:10.37,2013-08-07 17:12:00,
2013-08-07 13:17:00,85.1,67.1,29.44,WSW,247,6.9,6.9,55,0.00,CLR,,0.00,WeatherDisplay:10.37,2013-08-07 17:17:00,
2013-08-07 13:22:00,84.9,68.0,29.43,West,265,7.0,7.0,57,0.00,CLR,,0.00,WeatherDisplay:10.37,2013-08-07 17:22:00,
2013-08-07 13:27:00,84.5,67.6,29.43,WSW,256,3.5,3.5,57,0.00,CLR,,0.00,WeatherDisplay:10.37,2013-08-07 17:27:00,
2013-08-07 13:32:00,84.3,67.4,29.43,SW,232,0.0,1.2,57,0.00,CLR,,0.00,WeatherDisplay:10.37,2013-08-07 17:32:00,
2013-08-07 13:37:00,84.1,67.7,29.43,West,263,3.5,3.5,58,0.00,CLR,,0.00,WeatherDisplay:10.37,2013-08-07 17:37:00,
2013-08-07 13:42:00,84.1,67.2,29.43,SSW,206,1.1,1.1,57,0.00,CLR,,0.00,WeatherDisplay:10.37,2013-08-07 17:42:00,
2013-08-07 13:47:00,84.3,67.9,29.43,SW,223,0.0,0.0,58,0.00,CLR,,0.00,WeatherDisplay:10.37,2013-08-07 17:47:00,
2013-08-07 13:52:00,84.5,67.6,29.43,WSW,241,2.3,2.3,57,0.00,CLR,,0.00,WeatherDisplay:10.37,2013-08-07 17:52:00,
2013-08-07 13:57:00,84.7,68.3,29.43,WSW,248,0.0,0.0,58,0.00,CLR,,0.00,WeatherDisplay:10.37,2013-08-07 17:57:00,
2013-08-07 14:02:00,84.9,66.9,29.43,WSW,244,3.5,3.5,55,0.00,CLR,,0.00,WeatherDisplay:10.37,2013-08-07 18:02:00,
2013-08-07 14:07:00,84.1,65.7,29.43,WSW,251,10.4,10.4,54,0.00,CLR,,0.00,WeatherDisplay:10.37,2013-08-07 18:07:00,
2013-08-07 14:12:00,83.8,66.9,29.43,WSW,257,3.5,3.5,57,0.00,CLR,,0.00,WeatherDisplay:10.37,2013-08-07 18:12:00,
2013-08-07 14:13:00,83.8,66.9,29.43,WSW,256,2.3,2.3,57,0.00,CLR,,0.00,WeatherDisplay:10.37,2013-08-07 18:13:00,
2013-08-07 14:18:00,84.0,67.6,29.43,WSW,250,0.0,0.0,58,0.00,CLR,,0.00,WeatherDisplay:10.37,2013-08-07 18:18:00,
2013-08-07 14:23:00,84.1,67.2,29.42,WSW,248,2.3,0.0,57,0.00,CLR,,0.00,WeatherDisplay:10.37,2013-08-07 18:23:00,
2013-08-07 14:28:00,84.0,67.1,29.42,WSW,251,2.3,0.0,57,0.00,CLR,,0.00,WeatherDisplay:10.37,2013-08-07 18:28:00,
2013-08-07 14:33:00,83.8,66.9,29.42,WSW,248,7.0,7.0,57,0.00,CLR,,0.00,WeatherDisplay:10.37,2013-08-07 18:33:00,
2013-08-07 14:38:00,83.6,66.8,29.42,WSW,239,4.6,4.6,57,0.00,CLR,,0.00,WeatherDisplay:10.37,2013-08-07 18:38:00,
2013-08-07 14:43:00,84.1,67.7,29.42,West,272,2.3,2.3,58,0.00,CLR,,0.00,WeatherDisplay:10.37,2013-08-07 18:43:00,
2013-08-07 14:48:00,84.5,67.1,29.42,WSW,247,2.3,2.3,56,0.00,CLR,,0.00,WeatherDisplay:10.37,2013-08-07 18:48:00,
2013-08-07 14:53:00,85.1,67.1,29.41,SW,224,0.0,0.0,55,0.00,CLR,,0.00,WeatherDisplay:10.37,2013-08-07 18:53:00,
2013-08-07 14:58:00,85.3,66.2,29.41,South,176,3.5,0.0,53,0.00,CLR,,0.00,WeatherDisplay:10.37,2013-08-07 18:58:00,
2013-08-07 15:03:00,85.5,67.5,29.41,SE,140,2.3,0.0,55,0.00,CLR,,0.00,WeatherDisplay:10.37,2013-08-07 19:03:00,
2013-08-07 15:08:00,85.7,68.2,29.41,SSW,196,5.8,5.8,56,0.00,CLR,,0.00,WeatherDisplay:10.37,2013-08-07 19:08:00,
2013-08-07 15:13:00,85.7,67.1,29.41,South,184,1.1,1.1,54,0.00,CLR,,0.00,WeatherDisplay:10.37,2013-08-07 19:13:00,
2013-08-07 15:18:00,85.7,66.6,29.41,WSW,239,3.5,3.5,53,0.00,CLR,,0.00,WeatherDisplay:10.37,2013-08-07 19:18:00,
2013-08-07 15:23:00,85.7,66.6,29.41,WSW,247,10.0,10.0,53,0.00,CLR,,0.00,WeatherDisplay:10.37,2013-08-07 19:23:00,
2013-08-07 15:28:00,85.1,67.6,29.41,WSW,258,6.9,6.9,56,0.00,CLR,,0.00,WeatherDisplay:10.37,2013-08-07 19:28:00,
2013-08-07 15:33:00,85.1,67.1,29.41,East,90,2.3,2.3,55,0.00,CLR,,0.00,WeatherDisplay:10.37,2013-08-07 19:33:00,
2013-08-07 15:38:00,84.7,66.2,29.41,East,99,0.0,0.0,54,0.00,CLR,,0.00,WeatherDisplay:10.37,2013-08-07 19:38:00,
2013-08-07 15:43:00,84.7,65.1,29.41,ENE,59,2.3,2.3,52,0.00,CLR,,0.00,WeatherDisplay:10.37,2013-08-07 19:43:00,
2013-08-07 15:48:00,84.5,65.5,29.41,SSW,209,0.0,0.0,53,0.00,CLR,,0.00,WeatherDisplay:10.37,2013-08-07 19:48:00,
2013-08-07 15:53:00,84.1,65.7,29.41,East,92,0.0,0.0,54,0.00,CLR,,0.00,WeatherDisplay:10.37,2013-08-07 19:53:00,
2013-08-07 15:58:00,84.3,66.9,29.41,East,93,0.0,0.0,56,0.00,CLR,,0.00,WeatherDisplay:10.37,2013-08-07 19:58:00,
2013-08-07 16:03:00,84.9,68.0,29.41,East,92,0.0,0.0,57,0.00,CLR,,0.00,WeatherDisplay:10.37,2013-08-07 20:03:00,
2013-08-07 16:08:00,85.3,67.3,29.40,South,171,0.0,0.0,55,0.00,CLR,,0.00,WeatherDisplay:10.37,2013-08-07 20:08:00,
2013-08-07 16:13:00,85.5,67.0,29.40,WSW,244,0.0,0.0,54,0.00,CLR,,0.00,WeatherDisplay:10.37,2013-08-07 20:13:00,
2013-08-07 16:18:00,85.9,68.4,29.40,WSW,258,5.0,5.0,56,0.00,CLR,,0.00,WeatherDisplay:10.37,2013-08-07 20:18:00,
2013-08-07 16:23:00,85.9,66.8,29.40,WSW,243,5.8,5.8,53,0.00,CLR,,0.00,WeatherDisplay:10.37,2013-08-07 20:23:00,
2013-08-07 16:28:00,85.9,66.2,29.40,WSW,239,4.6,4.6,52,0.00,CLR,,0.00,WeatherDisplay:10.37,2013-08-07 20:28:00,
2013-08-07 16:33:00,85.5,65.3,29.40,West,271,1.1,1.1,51,0.00,CLR,,0.00,WeatherDisplay:10.37,2013-08-07 20:33:00,
2013-08-07 16:38:00,85.5,66.4,29.40,WSW,248,1.1,0.0,53,0.00,CLR,,0.00,WeatherDisplay:10.37,2013-08-07 20:38:00,
2013-08-07 16:43:00,85.3,67.3,29.40,WSW,254,2.3,2.3,55,0.00,CLR,,0.00,WeatherDisplay:10.37,2013-08-07 20:43:00,
2013-08-07 16:48:00,85.1,66.6,29.40,SW,233,2.3,0.0,54,0.00,CLR,,0.00,WeatherDisplay:10.37,2013-08-07 20:48:00,
2013-08-07 16:53:00,84.9,66.4,29.39,South,182,0.0,0.0,54,0.00,CLR,,0.00,WeatherDisplay:10.37,2013-08-07 20:53:00,
2013-08-07 16:58:00,84.9,66.9,29.39,NNW,337,0.0,0.0,55,0.00,CLR,,0.00,WeatherDisplay:10.37,2013-08-07 20:58:00,
2013-08-07 17:03:00,84.9,68.0,29.39,NNW,337,0.0,0.0,57,0.00,CLR,,0.00,WeatherDisplay:10.37,2013-08-07 21:03:00,
2013-08-07 17:08:00,85.5,68.0,29.39,SE,128,0.0,0.0,56,0.00,CLR,,0.00,WeatherDisplay:10.37,2013-08-07 21:08:00,
2013-08-07 17:13:00,85.3,66.8,29.39,WSW,257,4.6,4.6,54,0.00,CLR,,0.00,WeatherDisplay:10.37,2013-08-07 21:13:00,
2013-08-07 17:18:00,85.3,66.8,29.39,SW,229,1.1,0.0,54,0.00,CLR,,0.00,WeatherDisplay:10.37,2013-08-07 21:18:00,
2013-08-07 17:23:00,85.5,68.0,29.39,SW,224,0.0,0.0,56,0.00,CLR,,0.00,WeatherDisplay:10.37,2013-08-07 21:23:00,
2013-08-07 17:28:00,85.7,67.7,29.39,SW,226,1.1,0.0,55,0.00,CLR,,0.00,WeatherDisplay:10.37,2013-08-07 21:28:00,
2013-08-07 17:33:00,85.7,67.7,29.39,WSW,254,0.0,0.0,55,0.00,CLR,,0.00,WeatherDisplay:10.37,2013-08-07 21:33:00,
2013-08-07 17:38:00,85.7,68.2,29.39,WSW,257,1.0,1.0,56,0.00,CLR,,0.00,WeatherDisplay:10.37,2013-08-07 21:38:00,
2013-08-07 17:43:00,85.7,68.2,29.39,South,182,0.0,0.0,56,0.00,CLR,,0.00,WeatherDisplay:10.37,2013-08-07 21:43:00,
2013-08-07 17:48:00,85.7,67.7,29.39,SSW,205,0.0,0.2,55,0.00,CLR,,0.00,WeatherDisplay:10.37,2013-08-07 21:48:00,
2013-08-07 17:53:00,85.3,67.3,29.39,WSW,250,3.5,3.5,55,0.00,CLR,,0.00,WeatherDisplay:10.37,2013-08-07 21:53:00,
2013-08-07 17:58:00,84.5,67.6,29.39,SW,234,4.6,0.0,57,0.00,CLR,,0.00,WeatherDisplay:10.37,2013-08-07 21:58:00,
2013-08-07 18:03:00,84.1,68.2,29.39,SSW,206,0.0,0.0,59,0.00,CLR,,0.00,WeatherDisplay:10.37,2013-08-07 22:03:00,
2013-08-07 18:08:00,84.1,68.7,29.40,SSW,206,0.0,0.0,60,0.00,CLR,,0.00,WeatherDisplay:10.37,2013-08-07 22:08:00,
2013-08-07 18:13:00,84.0,69.1,29.40,SSW,206,0.0,0.0,61,0.00,CLR,,0.00,WeatherDisplay:10.37,2013-08-07 22:13:00,
2013-08-07 18:18:00,84.0,69.6,29.40,SSW,206,0.0,0.0,62,0.00,CLR,,0.00,WeatherDisplay:10.37,2013-08-07 22:18:00,
2013-08-07 18:23:00,84.0,70.0,29.39,South,186,0.0,0.0,63,0.00,CLR,,0.00,WeatherDisplay:10.37,2013-08-07 22:23:00,
2013-08-07 18:28:00,84.0,69.1,29.39,South,186,0.0,0.0,61,0.00,CLR,,0.00,WeatherDisplay:10.37,2013-08-07 22:28:00,
2013-08-07 18:33:00,84.0,69.1,29.39,South,186,0.0,0.0,61,0.00,CLR,,0.00,WeatherDisplay:10.37,2013-08-07 22:33:00,
2013-08-07 18:38:00,84.0,70.0,29.39,South,186,0.0,0.0,63,0.00,CLR,,0.00,WeatherDisplay:10.37,2013-08-07 22:38:00,
2013-08-07 18:43:00,83.8,69.4,29.39,South,186,0.0,0.0,62,0.00,CLR,,0.00,WeatherDisplay:10.37,2013-08-07 22:43:00,
2013-08-07 18:48:00,84.0,69.6,29.39,South,186,0.0,0.0,62,0.00,CLR,,0.00,WeatherDisplay:10.37,2013-08-07 22:48:00,
2013-08-07 18:53:00,83.8,69.4,29.39,South,186,0.0,0.0,62,0.00,CLR,,0.00,WeatherDisplay:10.37,2013-08-07 22:53:00,
2013-08-07 18:58:00,83.4,69.0,29.39,South,186,1.1,1.1,62,0.00,CLR,,0.00,WeatherDisplay:10.37,2013-08-07 22:58:00,
2013-08-07 19:03:00,83.4,69.9,29.39,South,186,0.0,0.0,64,0.00,CLR,,0.00,WeatherDisplay:10.37,2013-08-07 23:03:00,
2013-08-07 19:08:00,83.0,70.0,29.38,South,186,0.0,0.0,65,0.00,CLR,,0.00,WeatherDisplay:10.37,2013-08-07 23:08:00,
2013-08-07 19:13:00,82.6,69.6,29.38,South,186,0.0,0.0,65,0.00,CLR,,0.00,WeatherDisplay:10.37,2013-08-07 23:13:00,
2013-08-07 19:18:00,82.2,70.1,29.38,South,186,0.0,0.0,67,0.00,CLR,,0.00,WeatherDisplay:10.37,2013-08-07 23:18:00,
2013-08-07 19:23:00,82.0,70.0,29.39,South,186,0.0,0.0,67,0.00,CLR,,0.00,WeatherDisplay:10.37,2013-08-07 23:23:00,
2013-08-07 19:28:00,82.0,70.8,29.39,South,186,0.0,0.0,69,0.00,CLR,,0.00,WeatherDisplay:10.37,2013-08-07 23:28:00,
2013-08-07 19:33:00,81.8,71.1,29.39,South,186,0.0,0.0,70,0.00,CLR,,0.00,WeatherDisplay:10.37,2013-08-07 23:33:00,
2013-08-07 19:38:00,81.4,71.1,29.39,South,186,0.0,0.0,71,0.00,CLR,,0.00,WeatherDisplay:10.37,2013-08-07 23:38:00,
2013-08-07 19:43:00,81.1,71.2,29.39,South,186,0.0,0.0,72,0.00,CLR,,0.00,WeatherDisplay:10.37,2013-08-07 23:43:00,
2013-08-07 19:48:00,80.5,70.2,29.39,South,186,0.0,0.0,71,0.00,CLR,,0.00,WeatherDisplay:10.37,2013-08-07 23:48:00,
2013-08-07 19:53:00,80.1,69.8,29.39,South,186,0.0,0.0,71,0.00,CLR,,0.00,WeatherDisplay:10.37,2013-08-07 23:53:00,
2013-08-07 19:58:00,79.8,69.6,29.39,South,186,0.0,0.0,71,0.00,CLR,,0.00,WeatherDisplay:10.37,2013-08-07 23:58:00,
2013-08-07 20:03:00,79.4,70.0,29.39,South,186,0.0,0.0,73,0.00,CLR,,0.00,WeatherDisplay:10.37,2013-08-08 00:03:00,
2013-08-07 20:08:00,79.0,70.0,29.39,South,186,0.0,0.0,74,0.00,CLR,,0.00,WeatherDisplay:10.37,2013-08-08 00:08:00,
2013-08-07 20:13:00,78.6,69.6,29.39,South,186,0.0,0.0,74,0.00,CLR,,0.00,WeatherDisplay:10.37,2013-08-08 00:13:00,
2013-08-07 20:18:00,78.3,70.1,29.39,South,186,0.0,0.0,76,0.00,CLR,,0.00,WeatherDisplay:10.37,2013-08-08 00:18:00,
2013-08-07 20:23:00,77.9,69.7,29.39,South,186,0.0,0.0,76,0.00,CLR,,0.00,WeatherDisplay:10.37,2013-08-08 00:23:00,
2013-08-07 20:28:00,77.7,69.9,29.39,South,186,0.0,0.0,77,0.00,CLR,,0.00,WeatherDisplay:10.37,2013-08-08 00:28:00,
2013-08-07 20:33:00,77.6,69.8,29.39,South,186,0.0,0.0,77,0.00,CLR,,0.00,WeatherDisplay:10.37,2013-08-08 00:33:00,
2013-08-07 20:38:00,77.4,69.2,29.39,South,186,0.0,0.0,76,0.00,CLR,,0.00,WeatherDisplay:10.37,2013-08-08 00:38:00,
2013-08-07 20:43:00,77.2,69.4,29.39,South,186,0.0,0.0,77,0.00,CLR,,0.00,WeatherDisplay:10.37,2013-08-08 00:43:00,
2013-08-07 20:48:00,77.2,69.4,29.39,South,186,0.0,0.0,77,0.00,CLR,,0.00,WeatherDisplay:10.37,2013-08-08 00:48:00,
2013-08-07 20:53:00,77.2,70.5,29.40,South,186,0.0,0.0,80,0.00,CLR,,0.00,WeatherDisplay:10.37,2013-08-08 00:53:00,
2013-08-07 20:58:00,76.8,70.2,29.40,South,186,0.0,0.0,80,0.00,CLR,,0.00,WeatherDisplay:10.37,2013-08-08 00:58:00,
2013-08-07 21:03:00,76.8,70.2,29.40,South,186,0.0,0.0,80,0.00,CLR,,0.00,WeatherDisplay:10.37,2013-08-08 01:03:00,
2013-08-07 21:08:00,76.7,70.4,29.40,South,186,0.0,0.0,81,0.00,CLR,,0.00,WeatherDisplay:10.37,2013-08-08 01:08:00,
2013-08-07 21:13:00,76.5,69.9,29.40,South,186,0.0,0.0,80,0.00,CLR,,0.00,WeatherDisplay:10.37,2013-08-08 01:13:00,
2013-08-07 21:18:00,76.3,69.7,29.40,South,186,0.0,0.0,80,0.00,CLR,,0.00,WeatherDisplay:10.37,2013-08-08 01:18:00,
2013-08-07 21:23:00,76.1,69.8,29.40,South,186,0.0,0.0,81,0.00,CLR,,0.00,WeatherDisplay:10.37,2013-08-08 01:23:00,
2013-08-07 21:28:00,76.1,70.2,29.40,South,186,0.0,0.0,82,0.00,CLR,,0.00,WeatherDisplay:10.37,2013-08-08 01:28:00,
2013-08-07 21:33:00,76.0,69.7,29.40,South,186,0.0,0.0,81,0.00,CLR,,0.00,WeatherDisplay:10.37,2013-08-08 01:33:00,
2013-08-07 21:38:00,76.0,69.7,29.40,South,186,0.0,0.0,81,0.00,CLR,,0.00,WeatherDisplay:10.37,2013-08-08 01:38:00,
2013-08-07 21:43:00,75.8,69.9,29.40,South,186,0.0,0.0,82,0.00,CLR,,0.00,WeatherDisplay:10.37,2013-08-08 01:43:00,
2013-08-07 21:48:00,75.8,69.9,29.40,South,186,0.0,0.0,82,0.00,CLR,,0.00,WeatherDisplay:10.37,2013-08-08 01:48:00,
2013-08-07 21:53:00,75.6,69.4,29.40,South,186,0.0,0.0,81,0.00,CLR,,0.00,WeatherDisplay:10.37,2013-08-08 01:53:00,
2013-08-07 21:58:00,75.6,69.4,29.40,South,186,0.0,0.0,81,0.00,CLR,,0.00,WeatherDisplay:10.37,2013-08-08 01:58:00,
2013-08-07 22:03:00,75.6,69.4,29.40,South,186,0.0,0.0,81,0.00,CLR,,0.00,WeatherDisplay:10.37,2013-08-08 02:03:00,
2013-08-07 22:08:00,75.6,70.1,29.41,South,186,0.0,0.0,83,0.00,CLR,,0.00,WeatherDisplay:10.37,2013-08-08 02:08:00,
2013-08-07 22:13:00,75.6,69.7,29.41,South,186,0.0,0.0,82,0.00,CLR,,0.00,WeatherDisplay:10.37,2013-08-08 02:13:00,
2013-08-07 22:18:00,75.4,69.5,29.41,South,186,0.0,0.0,82,0.00,CLR,,0.00,WeatherDisplay:10.37,2013-08-08 02:18:00,
2013-08-07 22:23:00,75.4,69.9,29.41,South,186,0.0,0.0,83,0.00,CLR,,0.00,WeatherDisplay:10.37,2013-08-08 02:23:00,
2013-08-07 22:28:00,75.3,69.8,29.41,South,186,0.0,0.0,83,0.00,CLR,,0.00,WeatherDisplay:10.37,2013-08-08 02:28:00,
2013-08-07 22:33:00,75.3,69.8,29.41,South,186,0.0,0.0,83,0.00,CLR,,0.00,WeatherDisplay:10.37,2013-08-08 02:33:00,
2013-08-07 22:38:00,75.3,69.8,29.41,South,186,0.0,0.0,83,0.00,CLR,,0.00,WeatherDisplay:10.37,2013-08-08 02:38:00,
2013-08-07 22:43:00,75.3,69.8,29.41,South,186,0.0,0.0,83,0.00,CLR,,0.00,WeatherDisplay:10.37,2013-08-08 02:43:00,
2013-08-07 22:48:00,75.3,69.8,29.41,South,186,0.0,0.0,83,0.00,CLR,,0.00,WeatherDisplay:10.37,2013-08-08 02:48:00,
2013-08-07 22:53:00,75.3,69.8,29.41,South,186,0.0,0.0,83,0.00,CLR,,0.00,WeatherDisplay:10.37,2013-08-08 02:53:00,
2013-08-07 22:58:00,75.3,69.4,29.41,South,186,0.0,0.0,82,0.00,CLR,,0.00,WeatherDisplay:10.37,2013-08-08 02:58:00,
2013-08-07 23:03:00,75.3,69.4,29.41,South,186,0.0,0.0,82,0.00,CLR,,0.00,WeatherDisplay:10.37,2013-08-08 03:03:00,
2013-08-07 23:08:00,75.3,69.4,29.41,South,186,0.0,0.0,82,0.00,CLR,,0.00,WeatherDisplay:10.37,2013-08-08 03:08:00,
2013-08-07 23:13:00,75.3,69.1,29.41,SSE,152,0.0,0.0,81,0.00,CLR,,0.00,WeatherDisplay:10.37,2013-08-08 03:13:00,
2013-08-07 23:18:00,75.3,69.1,29.41,NNE,17,0.0,0.0,81,0.00,CLR,,0.00,WeatherDisplay:10.37,2013-08-08 03:18:00,
2013-08-07 23:23:00,75.3,69.1,29.41,North,357,0.0,0.0,81,0.00,CLR,,0.00,WeatherDisplay:10.37,2013-08-08 03:23:00,
2013-08-07 23:28:00,75.3,68.7,29.41,North,0,0.0,0.0,80,0.00,CLR,,0.00,WeatherDisplay:10.37,2013-08-08 03:28:00,
2013-08-07 23:33:00,75.3,68.7,29.41,North,0,0.0,0.0,80,0.00,CLR,,0.00,WeatherDisplay:10.37,2013-08-08 03:33:00,
2013-08-07 23:38:00,75.4,68.8,29.41,North,0,0.0,0.0,80,0.00,CLR,,0.00,WeatherDisplay:10.37,2013-08-08 03:38:00,
2013-08-07 23:43:00,75.3,68.7,29.41,North,0,0.0,0.0,80,0.00,CLR,,0.00,WeatherDisplay:10.37,2013-08-08 03:43:00,
2013-08-07 23:49:00,75.3,68.7,29.41,North,0,0.0,0.0,80,0.00,CLR,,0.00,WeatherDisplay:10.37,2013-08-08 03:49:00,
2013-08-07 23:54:00,75.3,68.7,29.41,ESE,113,1.1,0.0,80,0.00,CLR,,0.00,WeatherDisplay:10.37,2013-08-08 03:54:00,
2013-08-07 23:59:00,75.1,68.5,29.41,SW,229,0.0,0.0,80,0.00,CLR,,0.00,WeatherDisplay:10.37,2013-08-08 03:59:00,